Oakes, ND

9:48 AM CDT on June 23, 2017 (GMT -0500)
Oakes

Weather History for K2D5 - May, 2014

Change the Weather History Date:

Saturday, May 10, 2014

  Actual Average (KP67) Record (KP67)
Temperature  
Mean Temperature 49 °F -  
Max Temperature 66 °F 62 °F 78 °F (1997)
Min Temperature 32 °F 42 °F 46 °F (1997)
Degree Days  
Heating Degree Days 16    
Moisture  
Dew Point 40 °F    
Average Humidity 69    
Maximum Humidity 100    
Minimum Humidity 42    
Precipitation  
Precipitation 0.00 in - - ()
Sea Level Pressure  
Sea Level Pressure 29.69 in    
Wind  
Wind Speed 11 mph (SE)    
Max Wind Speed 23 mph    
Max Gust Speed 30 mph    
Visibility 10 miles    
Events Rain , Thunderstorm    
Averages and records for this station are not official NWS values.
T = Trace of Precipitation, MM = Missing Value Source: NWS Daily Summary

Daily Weather History Graph

Daily Weather History Graph

Search for Another Location

Airport or City:

Trip Planner

Search our weather history database for the weather conditions in past years. The results will help you decide how hot, cold, wet, or windy it might be!

Date:

Astronomy

May. 10, 2014 Rise Set
Actual Time 6:05 AM CDT 8:52 PM CDT
Civil Twilight 5:31 AM CDT 9:27 PM CDT
Nautical Twilight 4:47 AM CDT 10:11 PM CDT
Astronomical Twilight 3:56 AM CDT 11:02 PM CDT
Moon 4:35 PM CDT (5/10) 3:55 AM CDT (5/10)
Length of Visible Light 15h 55m
Length of Day
14h 46m
Waxing Gibbous, 82% of the Moon is Illuminated
May 10
Waxing Gibbous
May 14
Full
May 21
Last Quarter
May 28
New
Jun 5
First Quarter

Hourly Weather History & Observations

Time (CDT) Temp. Windchill Dew Point Humidity Pressure Visibility Wind Dir Wind Speed Gust Speed Precip Events Conditions
12:15 AM 39.2 °F 33.6 °F 32.0 °F 75% 29.78 in 10.0 mi SE 8.1 mph - N/A   Clear
12:35 AM 39.2 °F 34.2 °F 32.0 °F 75% 29.78 in 10.0 mi SSE 6.9 mph - N/A   Clear
12:55 AM 39.2 °F 35.0 °F 32.0 °F 75% 29.78 in 10.0 mi South 5.8 mph - N/A   Clear
1:15 AM 39.2 °F 34.2 °F 32.0 °F 75% 29.78 in 10.0 mi SSE 6.9 mph - N/A   Clear
1:35 AM 37.4 °F 32.1 °F 32.0 °F 81% 29.78 in 10.0 mi SE 6.9 mph - N/A   Clear
1:55 AM 35.6 °F 29.2 °F 30.2 °F 81% 29.78 in 10.0 mi SE 8.1 mph - N/A   Clear
2:15 AM 35.6 °F 29.2 °F 32.0 °F 87% 29.77 in 10.0 mi ESE 8.1 mph - N/A   Clear
2:35 AM 33.8 °F 27.7 °F 32.0 °F 93% 29.77 in 10.0 mi SSE 6.9 mph - N/A   Clear
2:55 AM 33.8 °F 27.7 °F 32.0 °F 93% 29.77 in 10.0 mi SE 6.9 mph - N/A   Clear
3:15 AM 35.6 °F 29.9 °F 32.0 °F 87% 29.77 in 10.0 mi SSE 6.9 mph - N/A   Clear
3:35 AM 35.6 °F 30.7 °F 32.0 °F 87% 29.76 in 10.0 mi SE 5.8 mph - N/A   Clear
3:55 AM 35.6 °F 32.8 °F 32.0 °F 87% 29.76 in 10.0 mi SE 3.5 mph - N/A   Clear
4:15 AM 37.4 °F 33.8 °F 32.0 °F 81% 29.76 in 10.0 mi SE 4.6 mph - N/A   Clear
4:35 AM 35.6 °F 31.7 °F 32.0 °F 87% 29.77 in 10.0 mi SE 4.6 mph - N/A   Clear
4:55 AM 35.6 °F 30.7 °F 30.2 °F 81% 29.76 in 10.0 mi SE 5.8 mph - N/A   Clear
5:15 AM 35.6 °F 29.9 °F 28.4 °F 75% 29.76 in 10.0 mi SSE 6.9 mph - N/A   Clear
5:35 AM 33.8 °F 28.6 °F 28.4 °F 81% 29.76 in 10.0 mi SSE 5.8 mph - N/A   Clear
5:55 AM 33.8 °F 28.6 °F 28.4 °F 81% 29.76 in 10.0 mi SE 5.8 mph - N/A   Clear
6:15 AM 32.0 °F 25.6 °F 28.4 °F 87% 29.76 in 10.0 mi SE 6.9 mph - N/A   Clear
6:35 AM 32.0 °F 25.6 °F 28.4 °F 87% 29.76 in 10.0 mi SE 6.9 mph - N/A   Clear
6:55 AM 32.0 °F 27.5 °F 30.2 °F 93% 29.76 in 10.0 mi East 4.6 mph - N/A   Clear
7:15 AM 37.4 °F 31.4 °F 32.0 °F 81% 29.76 in 10.0 mi ESE 8.1 mph - N/A   Clear
7:35 AM 41.0 °F 37.1 °F 37.4 °F 87% 29.76 in 10.0 mi ESE 5.8 mph - N/A   Clear
7:55 AM 44.6 °F 39.7 °F 37.4 °F 76% 29.75 in 10.0 mi ESE 9.2 mph - N/A   Clear
8:15 AM 46.4 °F 41.9 °F 37.4 °F 71% 29.75 in 10.0 mi ESE 9.2 mph - N/A   Clear
8:35 AM 50.0 °F - 35.6 °F 58% 29.74 in 10.0 mi ESE 11.5 mph - N/A   Clear
8:55 AM 50.0 °F - 33.8 °F 54% 29.74 in 10.0 mi ESE 12.7 mph - N/A   Clear
9:15 AM 51.8 °F - 35.6 °F 54% 29.74 in 10.0 mi ESE 15.0 mph - N/A   Clear
9:35 AM 53.6 °F - 35.6 °F 51% 29.73 in 10.0 mi ESE 15.0 mph - N/A   Clear
9:55 AM 55.4 °F - 35.6 °F 47% 29.73 in 10.0 mi ESE 17.3 mph - N/A   Partly Cloudy
10:15 AM 57.2 °F - 35.6 °F 44% 29.72 in 10.0 mi East 18.4 mph - N/A   Clear
10:35 AM 59.0 °F - 35.6 °F 42% 29.71 in 10.0 mi ESE 17.3 mph - N/A   Partly Cloudy
10:55 AM 59.0 °F - 35.6 °F 42% 29.70 in 10.0 mi ESE 19.6 mph 26.5 mph N/A   Partly Cloudy
11:15 AM 59.0 °F - 37.4 °F 45% 29.70 in 10.0 mi East 17.3 mph 23.0 mph N/A   Partly Cloudy
11:35 AM 59.0 °F - 37.4 °F 45% 29.69 in 10.0 mi East 19.6 mph - N/A   Scattered Clouds
11:55 AM 62.6 °F - 39.2 °F 42% 29.68 in 10.0 mi East 20.7 mph - N/A   Scattered Clouds
12:15 PM 60.8 °F - 41.0 °F 48% 29.68 in 10.0 mi East 20.7 mph 25.3 mph N/A   Mostly Cloudy
12:35 PM 59.0 °F - 39.2 °F 48% 29.68 in 10.0 mi East 19.6 mph 27.6 mph N/A   Mostly Cloudy
12:55 PM 62.6 °F - 41.0 °F 45% 29.67 in 10.0 mi ESE 19.6 mph - N/A   Mostly Cloudy
1:15 PM 62.6 °F - 41.0 °F 45% 29.67 in 10.0 mi East 23.0 mph 29.9 mph N/A   Mostly Cloudy
1:35 PM 62.6 °F - 42.8 °F 48% 29.66 in 10.0 mi East 21.9 mph 27.6 mph N/A   Scattered Clouds
1:55 PM 59.0 °F - 46.4 °F 63% 29.66 in 8.0 mi East 21.9 mph 25.3 mph N/A   Mostly Cloudy
2:15 PM 55.4 °F - 48.2 °F 77% 29.66 in 8.0 mi ESE 15.0 mph - N/A   Mostly Cloudy
2:35 PM 57.2 °F - 48.2 °F 72% 29.66 in 10.0 mi East 15.0 mph - N/A   Mostly Cloudy
2:55 PM 57.2 °F - 50.0 °F 77% 29.66 in 9.0 mi East 15.0 mph - N/A Rain Light Rain
3:15 PM 59.0 °F - 50.0 °F 72% 29.65 in 10.0 mi East 18.4 mph - N/A   Overcast
3:35 PM 60.8 °F - 48.2 °F 63% 29.64 in 10.0 mi East 18.4 mph 24.2 mph N/A   Mostly Cloudy
3:55 PM 59.0 °F - 50.0 °F 72% 29.63 in 9.0 mi East 17.3 mph - N/A   Mostly Cloudy
4:15 PM 64.4 °F - 50.0 °F 59% 29.62 in 10.0 mi ENE 20.7 mph - N/A   Partly Cloudy
4:35 PM 64.4 °F - 48.2 °F 56% 29.62 in 10.0 mi East 19.6 mph - N/A   Scattered Clouds
4:55 PM 64.4 °F - 50.0 °F 59% 29.61 in 10.0 mi East 17.3 mph - N/A   Scattered Clouds
5:15 PM 64.4 °F - 50.0 °F 59% 29.61 in 10.0 mi East 19.6 mph - N/A   Clear
5:35 PM 64.4 °F - 50.0 °F 59% 29.60 in 10.0 mi East 20.7 mph 24.2 mph N/A   Partly Cloudy
5:55 PM 66.2 °F - 50.0 °F 56% 29.59 in 10.0 mi East 18.4 mph 26.5 mph N/A   Scattered Clouds
6:15 PM 62.6 °F - 50.0 °F 63% 29.58 in 10.0 mi East 20.7 mph 27.6 mph N/A Thunderstorm Partly Cloudy
6:35 PM 62.6 °F - 51.8 °F 68% 29.59 in 10.0 mi East 17.3 mph 24.2 mph N/A Thunderstorm Scattered Clouds
6:55 PM 62.6 °F - 51.8 °F 68% 29.60 in 10.0 mi East 16.1 mph 26.5 mph N/A Thunderstorm Thunderstorm
7:15 PM 62.6 °F - 50.0 °F 63% 29.60 in 10.0 mi SW 13.8 mph 19.6 mph N/A Thunderstorm Partly Cloudy
7:35 PM 62.6 °F - 48.2 °F 59% 29.61 in 10.0 mi SSW 12.7 mph - N/A Thunderstorm Scattered Clouds
7:55 PM 62.6 °F - 48.2 °F 59% 29.61 in 10.0 mi SSW 10.4 mph - N/A   Mostly Cloudy
8:15 PM 59.0 °F - 48.2 °F 67% 29.62 in 10.0 mi SSW 9.2 mph - N/A   Scattered Clouds
8:35 PM 57.2 °F - 46.4 °F 67% 29.62 in 10.0 mi South 10.4 mph - N/A   Clear
8:55 PM 55.4 °F - 44.6 °F 67% 29.63 in 10.0 mi South 10.4 mph - N/A   Scattered Clouds
9:15 PM 55.4 °F - 46.4 °F 72% 29.64 in 10.0 mi South 12.7 mph - N/A   Partly Cloudy
9:35 PM 53.6 °F - 46.4 °F 77% 29.65 in 10.0 mi South 10.4 mph - N/A   Clear
9:55 PM 53.6 °F - 46.4 °F 77% 29.66 in 10.0 mi South 10.4 mph - N/A Thunderstorm Mostly Cloudy
10:15 PM 53.6 °F - 46.4 °F 77% 29.66 in 10.0 mi South 11.5 mph - N/A   Overcast
10:35 PM 53.6 °F - 46.4 °F 77% 29.66 in 10.0 mi South 10.4 mph - N/A   Overcast
10:55 PM 53.6 °F - 46.4 °F 77% 29.66 in 10.0 mi South 13.8 mph - N/A   Overcast
11:15 PM 51.8 °F - 48.2 °F 88% 29.67 in 10.0 mi SSW 9.2 mph - N/A   Mostly Cloudy
11:35 PM 48.2 °F - 48.2 °F 100% 29.67 in 10.0 mi SSW 12.7 mph - N/A   Partly Cloudy
11:55 PM 50.0 °F - 48.2 °F 94% 29.68 in 10.0 mi SW 9.2 mph - N/A   Clear